Probability
0 0 0 0 0 0 0 0 0 0 0 0 0 0 0 0 0 0 0 2 9 17 21 23 22 19 14 11 10 7 4 4 4 3 1 0 0 0 0 0 0 0 0 0 0 0 0 0 0
0 0 0 0 0 0 0 0 0 0 0 0 0 0 0 0 0 0 2 6 14 20 22 21 22 21 18 15 12 9 5 4 3 1 0 0 0 0 0 0 0 0 0 0 0 0 0 0 0
0 0 0 0 0 0 0 0 0 0 0 0 0 0 0 0 0 1 6 15 24 27 24 22 23 24 22 18 13 10 7 4 2 1 0 0 0 0 0 0 0 0 0 0 0 0 0 0 0
0 0 0 0 0 0 0 0 0 0 0 0 0 1 1 1 1 4 12 25 35 36 29 25 26 27 25 21 16 12 8 5 3 1 0 0 0 0 0 0 0 0 0 0 0 0 0 0 0
0 0 0 0 0 0 0 0 0 0 0 0 0 1 2 3 3 7 15 27 38 40 34 32 34 32 29 26 21 16 11 7 4 1 0 0 0 0 0 0 0 0 0 0 0 0 0 0 0
1 1 0 0 0 0 0 0 0 0 0 0 0 1 3 5 6 9 15 24 34 41 41 40 41 39 34 31 26 20 15 11 7 3 1 0 0 0 0 0 0 0 0 0 0 0 0 0 0
0 0 0 0 0 0 0 0 0 1 1 1 0 0 2 5 8 12 18 24 31 41 46 45 42 40 37 36 31 26 20 15 10 5 3 1 1 0 0 0 0 0 0 0 0 0 0 0 0
0 0 0 0 0 0 0 0 1 2 4 5 4 3 6 11 16 20 24 27 31 38 42 42 41 40 41 40 36 32 26 20 14 9 6 4 3 1 0 0 0 0 0 0 0 0 0 0 0
1 0 0 0 0 0 0 1 2 4 8 13 15 15 21 31 36 34 33 32 32 32 32 33 37 42 44 42 39 34 29 25 20 15 13 11 9 5 3 2 1 1 1 1 0 0 1 2 2
1 0 0 1 1 1 1 2 3 6 13 20 24 30 40 51 55 49 42 37 33 30 26 25 29 37 42 41 39 37 35 33 30 26 22 20 17 13 10 7 6 4 3 3 3 4 7 10 10
1 0 1 2 2 2 3 7 11 17 24 28 33 43 54 60 59 53 45 38 33 31 27 23 24 28 33 36 38 41 41 40 38 34 30 28 26 24 20 16 13 11 8 8 8 10 15 19 19
0 0 1 2 3 6 11 19 29 37 40 42 48 56 60 59 53 46 39 33 30 29 27 23 22 25 27 30 35 40 42 41 38 37 37 36 34 33 29 24 21 19 16 14 14 15 18 23 25
0 0 2 4 7 14 24 33 41 48 51 55 60 61 58 52 45 39 32 28 26 24 23 22 22 26 29 29 30 33 36 37 37 38 38 38 37 36 33 29 26 23 20 17 15 14 16 21 26
0 1 3 7 11 19 31 38 41 45 51 56 59 56 51 44 39 36 30 27 25 22 22 23 24 28 31 29 27 27 28 29 31 31 32 32 32 32 31 30 27 22 18 15 13 13 14 18 23
0 1 3 5 9 17 28 35 35 34 40 46 47 44 40 35 32 29 25 23 22 20 22 25 25 26 28 27 24 22 21 20 20 20 21 22 22 24 25 24 22 18 14 12 13 14 15 17 18
0 0 1 2 6 13 22 28 26 25 29 33 32 29 26 24 22 19 16 16 15 14 15 19 20 18 18 17 17 17 17 15 13 12 12 12 13 15 15 14 13 11 9 10 12 14 15 14 14
0 0 0 1 5 12 20 24 22 19 21 23 20 16 14 13 12 10 9 10 9 7 5 7 9 8 7 7 8 10 11 10 9 7 7 7 7 9 9 8 6 5 5 7 8 10 10 9 8
0 0 0 2 5 12 19 23 20 16 14 14 11 8 6 5 5 4 4 6 5 3 1 0 1 1 1 2 3 5 5 5 5 4 4 4 4 5 5 5 4 3 3 4 5 5 6 6 7
0 0 1 2 5 10 14 15 12 9 7 6 5 5 3 2 2 2 2 3 3 1 0 0 0 0 0 1 2 3 3 3 3 3 3 3 3 3 4 4 3 3 3 3 3 3 4 5 6
1 1 1 2 4 6 6 5 3 3 3 3 3 3 2 1 1 1 0 1 1 0 0 0 0 0 0 0 1 1 2 3 3 3 3 3 3 3 3 3 3 3 3 3 3 3 3 3 4
0 1 1 1 1 2 1 0 0 0 1 1 1 1 1 0 0 0 0 0 0 0 0 0 0 0 0 0 0 0 1 1 2 2 3 3 3 3 3 3 3 3 3 3 3 3 3 3 3
0 0 1 0 0 0 0 0 0 0 0 0 0 0 0 0 0 0 0 0 0 0 0 0 0 0 0 0 0 0 0 0 1 1 1 2 3 3 3 3 3 3 1 1 2 3 3 3 3
0 0 0 0 0 0 0 0 0 0 0 0 0 0 0 0 0 0 0 0 0 0 0 0 0 0 0 0 0 0 0 0 0 0 0 1 1 2 2 3 3 2 1 0 1 1 2 2 2
0 0 0 0 0 0 0 0 0 0 0 0 0 0 0 0 0 0 0 0 0 0 0 0 0 0 0 0 0 0 0 0 0 0 0 0 0 1 1 1 2 2 1 0 0 0 1 1 1
0 0 0 0 0 0 0 0 0 0 0 0 0 0 0 0 0 0 0 0 0 0 0 0 0 0 0 0 0 0 0 0 0 0 0 0 0 0 0 0 1 1 0 0 0 0 0 0 0
0 0 0 0 0 0 0 0 0 0 0 0 0 0 0 0 0 0 0 0 0 0 0 0 0 0 0 0 0 0 0 0 0 0 0 0 0 0 0 0 0 0 0 0 0 0 0 0 0
0 0 0 0 0 0 0 0 0 0 0 0 0 0 0 0 0 0 0 0 0 0 0 0 0 0 0 0 0 0 0 0 0 0 0 0 0 0 0 0 0 0 0 0 0 0 0 0 0
0 0 0 0 0 0 0 0 0 0 0 0 0 0 0 0 0 0 0 0 0 0 0 0 0 0 0 0 0 0 0 0 0 0 0 0 0 0 0 0 0 0 0 0 0 0 0 0 0
0 0 0 0 0 0 0 0 0 0 0 0 0 0 0 0 0 0 0 0 0 0 0 0 0 0 0 0 0 0 0 0 0 0 0 0 0 0 0 0 0 0 0 0 0 0 0 0 0
0 0 0 0 0 0 0 0 0 0 0 0 0 0 0 0 0 0 0 0 0 0 0 0 0 0 0 0 0 0 0 0 0 0 0 0 0 0 0 0 0 0 0 0 0 0 0 0 0
Wind_Speed
8 5 1 1 2 2 4 5 3 5 3 2 1 2 3 2 1 1 2 10 14 14 12 15 18 18 18 18 18 18 18 18 18 18 18 17 17 16 15 14 13 12 12 11 10 10 10 9 10
5 3 1 2 2 2 5 4 4 5 4 2 1 2 3 2 2 5 5 8 15 14 10 12 19 18 18 18 17 18 18 18 18 17 17 17 16 16 15 14 13 12 11 11 10 10 10 10 10
5 1 2 2 0 3 5 5 5 6 5 2 2 3 3 2 3 5 6 13 13 11 9 12 20 19 18 17 17 17 17 17 17 16 16 16 15 15 14 14 13 12 12 11 10 10 10 10 10
3 1 2 2 4 5 6 8 8 8 5 2 2 3 3 5 0 6 12 15 14 10 8 11 19 18 17 17 16 16 15 15 15 15 15 14 14 14 13 13 12 12 11 11 10 10 10 10 10
2 2 2 2 5 6 6 8 5 4 4 2 2 2 3 6 6 11 13 15 14 10 7 10 17 17 16 16 15 15 14 14 14 14 13 13 13 13 12 12 11 11 11 10 10 10 10 10 10
3 3 2 3 6 6 5 4 2 4 3 3 2 2 2 3 6 8 10 11 11 11 8 8 16 16 15 15 14 14 14 13 13 13 13 12 12 11 11 11 11 10 10 10 9 9 9 9 9
3 3 2 3 5 5 4 5 4 4 3 3 2 3 2 3 5 7 8 9 9 8 7 6 8 11 14 14 13 12 12 12 12 12 12 12 12 11 11 11 11 11 11 10 10 10 10 9 9
3 3 2 3 4 5 4 4 3 5 4 3 3 3 1 4 8 8 8 8 7 6 5 5 5 5 6 8 12 13 12 12 12 12 12 12 12 11 12 10 10 11 11 11 11 11 11 10 10
3 3 3 4 4 5 3 5 4 2 3 5 6 4 4 12 11 9 8 6 6 6 3 4 4 4 4 5 8 10 11 11 11 10 12 10 5 5 6 9 11 12 12 12 12 12 11 11 10
3 3 8 6 5 4 5 4 5 3 6 6 6 9 10 11 10 8 7 7 6 6 4 3 3 3 3 4 4 3 4 4 5 3 5 4 3 4 6 6 12 13 13 13 13 13 11 9 5
6 7 7 8 7 5 4 3 5 3 5 4 4 6 8 10 8 6 5 4 3 4 3 2 2 3 3 2 1 1 1 1 2 3 3 2 2 3 4 2 5 6 9 7 8 8 6 5 4
5 8 7 6 4 2 2 2 6 9 6 7 9 9 10 10 8 6 5 4 4 4 3 2 1 1 1 1 1 1 1 1 2 2 3 3 2 3 3 3 3 3 3 4 4 4 6 6 6
6 7 5 4 2 2 6 7 8 9 10 11 12 13 12 11 8 7 6 6 5 4 3 3 2 1 1 1 0 1 1 1 1 2 3 3 3 3 3 3 3 4 3 4 4 5 6 7 7
5 3 2 3 2 3 10 7 7 7 8 11 12 13 11 10 9 8 7 6 5 4 3 2 3 2 2 1 1 1 1 2 2 2 3 3 3 4 4 4 3 4 4 4 4 5 6 6 6
1 2 4 4 3 3 9 11 6 5 8 10 11 10 10 9 8 8 5 5 5 4 3 3 3 3 2 1 0 0 0 0 0 1 1 1 2 3 3 3 3 4 3 4 4 5 4 5 6
2 3 2 3 4 2 7 7 3 4 7 8 7 7 8 7 6 5 5 5 5 5 6 5 5 5 4 3 2 2 1 1 1 1 1 0 1 2 2 2 3 3 2 3 3 4 4 5 5
4 2 1 3 6 3 6 6 3 3 5 6 5 5 6 5 5 4 4 4 4 4 5 5 5 4 3 3 3 2 2 2 1 1 1 2 2 2 1 2 2 2 2 3 4 3 3 5 5
3 1 1 2 5 7 8 6 4 2 3 4 3 3 4 4 3 2 2 3 3 3 3 4 4 4 3 2 2 2 2 2 1 1 1 2 2 1 1 1 2 2 2 2 3 3 3 4 4
2 2 2 2 2 6 7 6 3 1 1 2 2 2 2 2 1 1 1 1 2 3 3 3 3 2 2 1 1 1 1 1 1 1 2 2 2 2 1 1 2 2 2 3 3 3 3 3 2
4 4 4 4 3 5 6 4 2 2 1 0 1 1 1 1 0 0 0 1 1 1 2 2 3 2 2 1 1 0 0 1 1 2 2 2 3 2 1 2 2 2 2 3 3 2 2 2 2
2 5 6 7 5 5 4 3 2 2 2 1 1 0 0 1 1 1 0 0 1 1 1 2 2 2 2 2 1 2 2 2 2 3 3 3 4 3 2 2 2 2 2 3 3 3 4 3 2
0 2 7 9 6 2 2 1 3 2 3 2 2 1 1 1 1 1 1 0 0 0 1 2 2 2 2 2 2 1 1 1 2 2 3 4 4 4 3 3 3 3 2 3 4 3 3 3 3
2 5 7 6 5 4 5 2 4 2 2 3 2 2 1 1 1 1 1 1 1 1 2 1 2 2 2 2 1 1 1 1 2 2 4 4 4 4 4 4 3 3 3 4 4 3 3 3 3
6 7 7 6 5 4 2 1 3 3 4 3 2 1 1 1 1 1 1 1 1 2 2 2 2 2 3 2 2 1 2 2 3 4 4 4 3 4 5 4 3 3 3 4 4 4 4 4 4
5 6 4 5 5 1 2 0 6 4 4 4 3 2 1 1 2 1 1 1 1 2 2 2 2 3 3 3 3 3 3 3 3 4 4 4 4 4 5 4 4 4 4 4 4 4 4 5 5
2 5 6 3 3 2 2 2 5 3 1 1 1 1 1 1 2 1 0 0 1 1 2 2 3 3 4 4 4 4 3 2 3 4 4 4 4 5 6 5 5 5 5 5 3 3 4 4 5
4 3 4 7 3 1 3 4 5 0 0 1 1 2 1 1 1 1 1 1 1 2 2 3 3 4 4 4 5 5 4 4 4 5 4 4 5 5 6 6 6 6 5 5 4 4 5 4 5
4 7 5 6 4 0 3 4 4 4 3 2 2 2 2 1 0 1 1 2 2 2 3 3 3 4 4 5 5 5 5 5 5 5 6 6 6 6 6 7 6 6 6 5 4 4 5 5 4
3 4 6 5 4 5 2 7 5 6 5 4 3 2 3 2 1 1 1 2 2 3 3 4 4 4 5 5 5 5 6 5 5 5 6 6 6 6 6 7 6 6 6 6 5 5 5 6 5
2 3 6 5 2 3 3 8 4 2 3 3 3 2 2 2 1 1 2 2 3 4 5 5 5 5 5 5 5 6 6 6 6 6 7 6 7 7 7 6 6 7 7 6 6 7 6 6 6
Wind_Direction
148 138 128 70 41 20 280 263 254 296 290 286 3 82 100 108 185 216 116 136 135 145 153 156 154 150 147 144 142 141 140 140 141 143 144 147 149 150 152 154 155 155 154 151 149 144 141 138 136
135 141 83 56 61 346 288 266 274 274 272 292 12 73 66 54 77 112 129 140 141 146 150 154 156 153 150 148 146 145 145 146 147 148 149 151 153 155 157 158 160 159 157 156 154 150 147 144 142
145 150 91 68 95 230 275 280 281 291 293 294 36 51 66 34 126 151 150 141 139 142 145 159 158 157 155 153 151 150 150 151 152 153 155 156 158 160 161 162 163 163 162 161 160 156 153 151 149
132 62 58 57 266 248 249 279 296 312 324 14 63 41 58 11 79 144 138 141 138 137 141 161 159 159 158 157 156 156 156 156 157 159 160 162 164 166 167 168 169 169 169 169 167 165 161 159 157
73 82 45 325 268 263 259 274 290 314 319 5 75 70 24 10 67 121 136 143 142 139 142 160 159 161 162 162 162 161 162 162 163 165 168 170 172 174 174 176 177 177 176 176 176 174 170 168 167
68 69 62 286 279 279 285 302 328 333 330 2 57 73 25 54 88 116 128 136 140 141 141 152 161 163 165 167 168 168 169 170 172 174 176 179 182 184 184 185 186 187 188 187 186 186 181 179 179
113 108 214 261 284 298 311 351 0 336 346 357 78 87 52 77 91 104 111 122 130 135 134 141 155 164 168 170 173 174 175 176 179 182 185 189 192 195 195 195 196 198 199 198 198 198 196 194 191
143 108 276 270 266 278 308 356 346 359 344 11 58 108 165 137 112 103 103 112 123 126 130 131 139 148 158 169 178 181 185 186 189 191 193 197 202 205 206 204 209 209 208 208 209 208 206 204 203
121 75 253 245 247 269 320 348 344 360 39 38 39 47 99 119 114 110 109 114 129 137 128 125 131 137 146 164 186 187 193 197 197 200 203 204 206 209 212 214 218 221 220 219 219 219 217 214 213
128 182 233 229 233 272 315 342 340 12 25 28 41 51 91 108 112 117 126 137 147 156 154 127 133 142 152 181 183 182 194 194 195 194 201 199 196 210 216 223 225 229 229 228 227 226 224 222 215
175 210 239 250 253 271 298 353 20 65 35 20 55 74 88 96 97 101 105 118 132 137 141 141 149 163 170 175 171 172 178 182 194 200 205 198 198 213 219 216 232 238 239 235 234 230 221 215 206
202 244 246 271 283 273 280 74 60 54 58 62 73 79 78 75 71 73 80 92 94 109 126 120 146 169 174 156 181 183 185 197 209 214 204 198 210 215 220 225 228 231 236 234 228 223 215 218 217
224 261 267 268 308 86 88 77 87 63 67 73 74 69 67 68 67 70 77 81 86 85 89 114 133 161 171 147 172 183 212 225 223 226 219 212 222 224 224 231 233 238 237 237 236 231 223 219 220
236 248 310 333 57 76 91 73 74 63 75 75 71 68 66 66 67 65 63 73 82 86 93 111 114 135 124 118 136 182 205 199 213 229 231 228 230 228 226 228 233 241 242 240 238 238 231 227 222
280 328 359 20 62 117 92 62 59 76 80 73 68 69 66 59 62 70 68 72 76 79 79 85 93 83 92 104 105 93 52 127 186 262 272 246 245 246 237 237 237 238 239 237 235 239 234 230 226
22 48 14 352 30 52 89 99 76 72 85 81 77 76 71 58 55 65 72 75 73 73 70 64 77 78 76 71 47 46 49 51 44 21 344 331 247 248 248 250 257 257 246 241 239 236 237 239 231
25 34 340 354 17 64 90 119 115 80 86 92 91 90 84 70 52 47 60 76 77 76 81 76 74 79 77 69 53 46 50 50 35 28 357 331 302 271 247 247 262 270 252 244 250 239 233 240 236
256 240 74 34 21 75 96 112 109 87 107 111 105 94 94 87 60 22 45 62 72 70 76 85 80 76 80 77 64 47 39 26 24 21 342 324 303 285 254 253 273 274 262 256 252 254 242 241 238
198 148 106 87 66 71 94 102 85 77 85 98 94 95 99 97 92 35 44 61 70 61 60 63 75 62 70 71 68 56 2 332 351 341 328 320 313 298 258 263 264 251 251 257 256 251 252 247 228
155 125 115 94 93 96 99 76 41 20 352 152 142 129 137 116 26 15 27 51 53 59 53 51 50 42 38 42 36 12 322 309 305 321 331 331 324 309 287 265 264 254 253 261 254 239 246 250 215
157 163 164 146 108 83 107 46 352 325 354 2 12 51 26 222 225 235 206 30 42 25 14 44 38 36 28 26 34 29 22 0 351 342 335 330 329 320 307 295 283 270 248 255 257 240 235 242 238
239 196 145 137 118 82 75 120 302 313 326 318 311 289 232 245 221 182 157 124 92 40 50 45 34 31 21 27 44 47 32 316 294 301 307 317 327 325 313 292 275 268 256 252 255 239 234 235 244
102 78 97 103 102 76 29 88 292 338 300 283 265 233 229 233 187 138 121 108 71 59 67 54 42 27 14 26 54 57 355 275 293 305 311 316 318 318 314 302 283 270 261 258 253 249 234 227 234
114 77 60 52 69 62 342 70 283 254 236 255 263 253 237 233 114 103 95 84 56 37 40 35 28 357 352 360 3 359 303 299 310 313 311 311 309 307 310 310 297 283 271 266 260 252 246 239 239
77 89 46 15 24 288 297 250 256 256 235 218 234 266 275 151 140 139 101 54 28 25 12 3 2 336 335 339 334 320 304 295 288 291 294 299 300 297 299 306 297 290 279 272 260 254 253 245 240
105 126 146 175 201 276 334 262 262 277 258 195 189 178 129 132 153 155 139 70 9 357 350 345 339 326 328 330 323 317 308 293 283 282 280 279 276 280 286 290 286 283 283 283 268 257 252 242 239
116 94 133 117 103 46 303 294 303 310 86 105 123 131 153 155 143 112 39 22 352 337 331 327 327 320 318 321 321 315 313 301 290 289 282 277 275 281 287 291 288 285 282 278 273 258 256 248 242
100 134 93 97 123 256 301 281 251 250 241 223 185 183 192 164 105 36 12 351 335 325 322 326 322 311 310 317 314 315 308 299 293 294 292 288 286 285 289 289 288 285 283 275 267 265 257 248 247
63 76 92 95 133 146 241 268 231 223 219 207 202 195 189 185 197 288 309 318 323 328 329 326 327 322 317 314 308 308 304 303 303 298 292 291 291 291 288 285 284 281 279 275 266 263 260 250 247
118 136 141 135 169 151 177 266 284 227 196 177 181 184 179 180 224 288 308 324 331 330 328 327 324 319 311 309 308 306 305 307 306 300 295 294 292 291 286 285 283 279 277 270 261 263 262 254 250